{"data":{"norad_id":55616,"intl_designator":"2023-020AZ","name":"STARLINK-5710","alt_names":[],"object_type":"PAYLOAD","status":"ACTIVE","operator":null,"country":"US","launch_date":"2023-02-12","launch_site_code":"AFETR","launch_vehicle":null,"mission":null,"orbit_class":"UNKNOWN","rcs_meters":null,"size_class":null,"mass_kg":null,"dimensions":null,"purposes":["comms"],"wikipedia_slug":null,"has_3d_model":false,"image_url":null,"decayed_at":null,"tle_current":{"epoch":"2026-05-24T21:05:49.551072Z","epoch_age_seconds":81683,"freshness":"FRESH","line1":"1 55616U 23020AZ  26144.87904573  .00001132  00000+0  50633-4 0  9997","line2":"2 55616  43.0002 283.7665 0001483 251.9818 108.0872 15.27594032180699","mean_motion":15.27594032,"eccentricity":0.0001483,"inclination_deg":43.0002,"raan_deg":283.7665,"arg_perigee_deg":251.9818,"mean_anomaly_deg":108.0872,"bstar":5.0633e-5,"rev_number":18069,"period_min":94.265882808843,"perigee_km":481.9895718383,"apogee_km":484.02458717229,"semimajor_km":6861.1440795053,"source":"CELESTRAK","updated_at":"2026-05-25T13:38:17.844683Z"}}}